GW0707 Weather Reports


time (UTC)temp
F
wind
direction
speed
knots
gust
knots
rain 1hr
in
rain 24hr
in
rain mn
in
humidity
%
barometer
mb
20260507081803 59 11 3.5 8.7 0.00 0.00 0.00 75 1009.8
20260507081113 59 7 3.5 7.8 0.00 0.00 0.00 77 1009.7
20260507080004 58 4 3.5 7.0 0.00 0.00 0.00 79 1010.0
20260507075403 58 343 3.5 7.8 0.00 0.00 0.00 80 1010.0
20260507074503 58 5 4.3 11.3 0.00 0.00 0.00 81 1009.9
20260507073603 57 1 2.6 8.7 0.00 0.00 0.00 82 1009.8
20260507072703 56 26 0.9 2.6 0.00 0.00 0.00 84 1010.1
20260507072014 56 343 0.9 1.7 0.00 0.00 0.00 84 1009.9
20260507070903 55 9 0.0 1.7 0.00 0.00 0.00 84 1010.2
20260507070214 55 304 0.0 1.7 0.00 0.00 0.00 84 1010.0
20260507065403 54 295 0.0 1.7 0.00 0.00 0.00 85 1010.1
20260507064504 54 341 0.9 2.6 0.00 0.00 0.00 84 1010.1
20260507063814 54 346 1.7 3.5 0.00 0.00 0.00 85 1009.8
20260507062703 53 332 1.7 3.5 0.00 0.00 0.00 86 1009.7
20260507061803 53 310 2.6 5.2 0.00 0.00 0.00 86 1009.7
20260507060903 53 292 2.6 5.2 0.00 0.00 0.00 86 1009.8
20260507060004 53 321 0.9 2.6 0.00 0.00 0.00 86 1009.4
20260507055403 53 308 1.7 5.2 0.00 0.00 0.00 86 1009.3
20260507054713 52 309 2.6 5.2 0.00 0.00 0.00 86 1009.4
20260507053603 53 315 3.5 6.1 0.00 0.00 0.00 85 1009.3
20260507052703 53 314 3.5 6.1 0.00 0.00 0.00 85 1009.2
20260507051803 53 330 2.6 5.2 0.00 0.00 0.00 85 1009.3
20260507050903 53 326 1.7 3.5 0.00 0.00 0.00 85 1009.2
20260507050003 53 332 1.7 7.0 0.00 0.00 0.00 85 1009.5
20260507045403 53 323 2.6 6.1 0.00 0.00 0.00 85 1009.4
20260507044503 54 326 2.6 6.1 0.00 0.00 0.00 84 1009.4
20260507043603 54 338 2.6 7.8 0.00 0.00 0.00 83 1009.4
20260507042703 54 342 2.6 6.1 0.00 0.00 0.00 83 1009.5
20260507041803 54 348 2.6 6.1 0.00 0.00 0.00 83 1009.6
20260507040903 54 358 2.6 6.1 0.00 0.00 0.00 83 1009.6
20260507040004 54 31 2.6 7.8 0.00 0.00 0.00 83 1009.8
20260507035403 54 60 2.6 6.1 0.00 0.00 0.00 83 1009.9
20260507034503 54 122 1.7 6.1 0.00 0.00 0.00 84 1010.0
20260507033813 54 189 0.9 1.7 0.00 0.00 0.00 84 1010.1
20260507032913 54 155 0.0 1.7 0.00 0.00 0.00 83 1010.1
20260507031803 55 53 2.6 6.1 0.00 0.00 0.00 83 1010.0
20260507030903 55 53 2.6 6.1 0.00 0.00 0.00 82 1009.9
20260507030003 54 31 1.7 7.0 0.00 0.00 0.00 83 1009.8
20260507025403 54 358 2.6 8.7 0.00 0.00 0.00 83 1009.9
20260507024503 54 340 1.7 7.0 0.00 0.00 0.00 82 1009.9
20260507023603 55 356 2.6 7.0 0.00 0.00 0.00 82 1009.9
20260507022914 55 354 1.7 5.2 0.00 0.00 0.00 82 1010.2
20260507021803 55 13 1.7 7.0 0.00 0.00 0.00 82 1010.3
20260507021113 55 16 1.7 8.7 0.00 0.00 0.00 82 1010.3
20260507020003 55 356 1.7 5.2 0.00 0.00 0.00 81 1010.1
20260507015403 55 342 1.7 7.0 0.00 0.00 0.00 81 1010.2
20260507014503 55 329 1.7 7.0 0.00 0.00 0.00 81 1010.4
20260507013814 56 344 2.6 7.8 0.00 0.00 0.00 80 1010.4
20260507012914 56 357 1.7 7.8 0.00 0.00 0.00 80 1010.3
20260507012013 56 353 1.7 7.0 0.00 0.00 0.00 80 1010.3
20260507010903 56 314 1.7 5.2 0.00 0.00 0.00 80 1010.3
20260507010004 56 335 1.7 5.2 0.00 0.00 0.00 79 1010.3
20260507005403 56 354 2.6 9.6 0.00 0.00 0.00 80 1010.6
20260507004713 56 350 3.5 9.6 0.00 0.00 0.00 79 1010.5
20260507003603 56 8 2.6 7.8 0.00 0.00 0.00 79 1010.5
20260507002703 56 354 3.5 13.0 0.00 0.00 0.00 79 1010.5
20260507001803 57 19 1.7 5.2 0.00 0.00 0.00 79 1010.5
20260507000903 57 23 1.7 6.1 0.00 0.00 0.00 79 1010.7
20260507000004 57 4 3.5 8.7 0.00 0.00 0.00 79 1010.6
20260506235403 56 354 2.6 8.7 0.00 0.00 0.00 79 1010.7
20260506234504 56 356 2.6 7.8 0.00 0.00 0.00 79 1010.8
20260506233603 56 349 2.6 7.0 0.00 0.00 0.00 79 1010.8
20260506232703 57 3 0.9 5.2 0.00 0.00 0.00 79 1010.8
20260506232012 57 314 0.9 2.6 0.00 0.00 0.00 80 1010.7
20260506230903 57 340 1.7 7.8 0.00 0.00 0.00 79 1010.9
20260506230011 57 316 2.6 7.8 0.00 0.00 0.00 79 1010.8
20260506225403 57 32 1.7 5.2 0.00 0.00 0.00 79 1010.8
20260506224503 57 5 0.9 3.5 0.00 0.00 0.00 80 1010.8
20260506223603 57 345 0.9 2.6 0.00 0.00 0.00 79 1010.9
20260506222703 57 121 0.9 3.5 0.00 0.00 0.00 79 1010.9
20260506221803 57 329 0.0 1.7 0.00 0.00 0.00 79 1010.8
20260506220903 57 63 0.9 3.5 0.00 0.00 0.00 78 1011.2
20260506220004 57 293 0.0 1.7 0.00 0.00 0.00 78 1011.1
20260506215403 58 188 0.0 1.7 0.00 0.00 0.00 78 1011.2
20260506214714 58 178 0.9 2.6 0.00 0.00 0.00 77 1011.0
20260506213603 58 287 0.9 3.5 0.00 0.00 0.00 77 1011.1
20260506212703 58 11 1.7 11.3 0.00 0.00 0.00 77 1011.1
20260506211803 59 164 1.7 3.5 0.00 0.00 0.00 76 1011.0
20260506210903 58 140 1.7 5.2 0.00 0.00 0.00 77 1011.0
20260506210004 58 193 1.7 3.5 0.00 0.00 0.00 77 1011.1
20260506205403 59 264 1.7 7.0 0.00 0.00 0.00 76 1011.0
20260506204503 59 4 1.7 6.1 0.00 0.00 0.00 76 1011.0
20260506203603 59 281 0.9 3.5 0.00 0.00 0.00 76 1010.9
20260506202703 59 348 0.9 5.2 0.00 0.00 0.00 76 1010.8
20260506202013 59 353 0.9 5.2 0.00 0.00 0.00 75 1010.7
20260506200903 60 332 0.9 6.1 0.00 0.00 0.00 75 1011.0
20260506200004 60 24 1.7 7.8 0.00 0.00 0.00 74 1010.7
20260506195403 60 22 2.6 8.7 0.00 0.00 0.00 74 1010.6
20260506194713 60 36 3.5 8.7 0.00 0.00 0.00 73 1010.8
20260506193603 60 21 2.6 13.0 0.00 0.00 0.00 72 1010.6
20260506192703 61 10 2.6 7.8 0.00 0.00 0.00 72 1010.3
20260506192013 61 354 1.7 7.8 0.00 0.00 0.00 71 1010.3
20260506190903 61 9 3.5 13.0 0.00 0.00 0.00 71 1010.4
20260506190004 62 3 4.3 9.6 0.00 0.00 0.00 71 1010.3
20260506185613 62 5 4.3 9.6 0.00 0.00 0.00 70 1010.2
20260506184503 62 4 4.3 13.9 0.00 0.00 0.00 68 1010.1
20260506183604 63 7 3.5 11.3 0.00 0.00 0.00 68 1010.2
20260506182913 63 11 2.6 9.6 0.00 0.00 0.00 67 1010.4
20260506181803 63 338 4.3 13.9 0.00 0.00 0.00 67 1010.2
20260506180903 64 18 4.3 13.9 0.00 0.00 0.00 65 1010.3
20260506180004 64 8 6.1 11.3 0.00 0.00 0.00 64 1010.2
20260506175403 64 18 5.2 12.2 0.00 0.00 0.00 63 1010.3
20260506174504 64 20 6.1 13.9 0.00 0.00 0.00 62 1010.3
20260506173814 65 32 6.1 16.5 0.00 0.00 0.00 62 1010.4
20260506172708 66 22 5.2 12.2 0.00 0.00 0.00 62 1010.3
20260506171803 66 359 4.3 12.2 0.00 0.00 0.00 63 1010.5
20260506170903 67 339 5.2 15.6 0.00 0.00 0.00 62 1010.4
20260506170003 67 354 7.8 15.6 0.00 0.00 0.00 61 1010.6
20260506165403 68 354 6.1 15.6 0.00 0.00 0.00 60 1010.6
20260506164503 73 360 6.1 20.0 0.00 0.00 0.00 53 1010.4
20260506163603 80 358 7.8 20.0 0.00 0.00 0.00 45 1010.7
20260506162703 82 342 7.0 15.6 0.00 0.00 0.00 44 1010.6
20260506161804 82 348 6.1 15.6 0.00 0.00 0.00 46 1010.6
20260506160903 78 19 7.8 16.5 0.00 0.00 0.00 48 1010.6
20260506160003 77 7 5.2 15.6 0.00 0.00 0.00 50 1010.6
20260506155403 76 352 5.2 15.6 0.00 0.00 0.00 53 1010.5
20260506154713 69 2 7.0 15.6 0.00 0.00 0.00 59 1010.6
20260506153813 69 348 7.0 14.8 0.00 0.00 0.00 59 1010.4
20260506152703 69 5 7.0 18.2 0.00 0.00 0.00 61 1010.6
20260506151803 69 9 7.0 18.2 0.00 0.00 0.00 61 1010.9
20260506150904 69 359 7.0 15.6 0.00 0.00 0.00 62 1011.1
20260506150003 69 355 7.0 19.1 0.00 0.00 0.00 60 1010.9
20260506145614 69 3 7.0 19.1 0.00 0.00 0.00 61 1011.0
20260506144503 70 341 7.0 14.8 0.00 0.00 0.00 59 1011.0
20260506143603 69 5 7.8 18.2 0.00 0.00 0.00 62 1011.3
20260506142703 68 13 7.8 16.5 0.00 0.00 0.00 61 1011.2
20260506141804 68 9 7.8 13.9 0.00 0.00 0.00 61 1011.4
20260506140903 69 357 7.8 18.2 0.00 0.00 0.00 61 1011.5
20260506140003 69 4 7.0 18.2 0.00 0.00 0.00 62 1011.5
20260506135403 68 358 8.7 18.2 0.00 0.00 0.00 61 1011.5
20260506134503 69 6 6.1 13.9 0.00 0.00 0.00 61 1011.6
20260506133603 70 360 6.1 16.5 0.00 0.00 0.00 60 1011.6
20260506132704 69 339 7.8 18.2 0.00 0.00 0.00 62 1011.9
20260506131803 68 5 7.0 13.9 0.00 0.00 0.00 62 1011.8
20260506130904 68 9 7.8 16.5 0.00 0.00 0.00 63 1011.9
20260506130004 67 360 7.8 18.2 0.00 0.00 0.00 63 1012.0
20260506125403 67 1 8.7 18.2 0.00 0.00 0.00 62 1012.1
20260506124503 67 359 5.2 13.9 0.00 0.00 0.00 62 1012.1
20260506123603 68 353 5.2 13.0 0.00 0.00 0.00 64 1012.4
20260506122703 67 7 7.0 19.1 0.00 0.00 0.00 64 1012.2
20260506121803 66 356 7.0 15.6 0.00 0.00 0.00 65 1012.4
20260506120903 66 335 7.8 18.2 0.00 0.00 0.00 66 1012.7
20260506120004 66 3 7.0 18.2 0.00 0.00 0.00 65 1012.5
20260506115403 65 4 7.0 13.9 0.00 0.00 0.00 65 1012.9
20260506114714 65 10 6.1 13.9 0.00 0.00 0.00 66 1012.8
20260506113603 65 9 5.2 13.0 0.00 0.00 0.00 66 1012.9
20260506112703 65 334 5.2 9.6 0.00 0.00 0.00 66 1013.1
20260506111803 66 347 5.2 12.2 0.00 0.00 0.00 66 1013.0
20260506110903 65 355 5.2 11.3 0.00 0.00 0.00 68 1013.0
20260506110003 63 336 6.1 12.2 0.00 0.00 0.00 69 1013.2
20260506105403 63 327 5.2 12.2 0.00 0.00 0.00 71 1013.2
20260506104503 63 335 6.1 12.2 0.00 0.00 0.00 70 1013.2
20260506103603 63 350 6.1 12.2 0.00 0.00 0.00 71 1013.1
20260506102703 62 343 5.2 13.0 0.00 0.00 0.00 71 1013.2
20260506101803 63 2 5.2 12.2 0.00 0.00 0.00 69 1013.2
20260506100904 63 359 6.1 15.6 0.00 0.00 0.00 67 1013.2
20260506100214 63 24 4.3 12.2 0.00 0.00 0.00 68 1013.2
20260506095403 62 19 6.1 16.5 0.00 0.00 0.00 68 1013.4
20260506094504 62 15 3.5 13.0 0.00 0.00 0.00 69 1013.3
20260506093603 61 16 4.3 13.0 0.00 0.00 0.00 69 1013.3
20260506092703 60 30 4.3 13.9 0.00 0.00 0.00 71 1013.6
20260506091803 60 18 6.1 15.6 0.00 0.00 0.00 72 1013.5
20260506090903 60 360 6.1 13.9 0.00 0.00 0.00 74 1013.5
20260506090003 60 6 7.8 20.9 0.00 0.00 0.00 76 1013.5
20260506085403 59 7 7.0 20.0 0.00 0.00 0.00 76 1013.3
20260506084503 59 13 6.1 20.0 0.00 0.00 0.00 76 1013.5
20260506083604 59 18 5.2 15.6 0.00 0.00 0.00 78 1013.5
20260506082703 58 24 5.2 13.0 0.00 0.00 0.00 79 1013.7